Regional Weather Roundup
Issued by NWS Northern Indiana

Home | Current Version | Previous Version | Graphics & Text | Print | Product List | Glossary On
Versions: 1 2 3 4 5 6 7 8 9 10 11 12 13 14 15 16 17 18 19 20 21 22 23 24 25 26 27 28 29 30 31 32 33 34 35 36 37 38 39 40 41 42 43 44 45 46 47 48 49 50
000
ASUS43 KIWX 090110
RWRIWX

KIWX WEATHER ROUNDUP
NATIONAL WEATHER SERVICE NORTHERN INDIANA
800 PM EST THU DEC 08 2016

NOTE: "FAIR" INDICATES FEW OR NO CLOUDS BELOW 12,000 FEET WITH NO
SIGNIFICANT WEATHER AND/OR OBSTRUCTIONS TO VISIBILITY.

* THESE STATIONS ARE NOT UNDER NWS QUALITY CONTROL. THEY ALSO MAY NOT
  REPORT WEATHER SUCH AS PRECIPITATION OR FOG.

INZ001>027-090200-
NORTHERN INDIANA

CITY           SKY/WX    TMP DP  RH WIND       PRES   REMARKS
GARY*          CLOUDY    25  16  68 W14G29    30.40R WCI  13
VALPARAISO     CLOUDY    22  15  75 MISG      30.38R
MICHIGAN CITY* CLOUDY    27  19  74 W10G17    30.36S WCI  17
LAPORTE*       FLURRIES  21  15  78 W10       30.36S WCI  10
KNOX*          CLOUDY    21   0  39 W14       30.38S WCI   8
SOUTH BEND     LGT SNOW  20  16  84 SW13      30.33S FOG     WCI   7
ELKHART*       FLURRIES  21  16  79 SW14      30.32S WCI   8
GOSHEN         CLOUDY    21  13  71 SW18      30.33S WCI   6
MONTICELLO*    FLURRIES  21  12  67 W15       30.42R WCI   8
LOGANSPORT*    FLURRIES  21  14  73 NW8       30.41S WCI  12
ROCHESTER*     FLURRIES  23  19  86 W10G17    30.39S WCI  12
WARSAW*        FLURRIES  21  12  68 W15       30.35S WCI   8
ANGOLA*        CLOUDY    19  16  86 W10       30.26F WCI   8
FORT WAYNE     FLURRIES  20  13  74 W20G25    30.36R WCI   4
HUNTINGTON*    FLURRIES  19  13  76 W15       30.37S WCI   5
PERU/GRISSOM   FLURRIES  20  14  75 NW15      30.38R WCI   7
MARION*        LGT SNOW  19  15  84 NW13      30.40R WCI   7

$$
INZ028>050-090200-
CENTRAL INDIANA

CITY           SKY/WX    TMP DP  RH WIND       PRES   REMARKS
LAFAYETTE      FLURRIES  21  14  74 W15G24    30.44R WCI   8
KOKOMO*        FLURRIES  20  15  81 W20       30.40S WCI   4
MUNCIE*        LGT SNOW  21  15  78 NW13      30.39R WCI   9
INDIANAPOLIS   FLURRIES  22  14  71 W12       30.42R WCI  10

$$
MIZ043>046-050>051-056>058-064>065-071>073-077>080-090200-
SOUTHWEST LOWER MICHIGAN

CITY           SKY/WX    TMP DP  RH WIND       PRES   REMARKS
BATTLE CREEK   FLURRIES  25  22  88 W13       30.24R WCI  14
BENTON HARBOR  FLURRIES  29  19  66 W16G24    30.31R WCI  17
COLDWATER*     FLURRIES  22  18  87 W13G20    30.26S WCI  10
HILLSDALE*     FLURRIES  21  18  86 W13       30.22S WCI   9
HOLLAND        FLURRIES  31  19  61 W14       30.25R WCI  21
GRAND RAPIDS   CLOUDY    27  23  85 W10       30.22R WCI  17
KALAMAZOO      LGT SNOW  25  21  85 SW12      30.26R FOG     WCI  14
STURGIS*       FLURRIES  21  17  86 W12       30.28S WCI   9
THREE RIVERS*  LGT SNOW  22  19  88 SW12      30.28S WCI  10

$$
OHZ001>008-015>018-024>025-090200-
NORTHWEST OHIO

CITY           SKY/WX    TMP DP  RH WIND       PRES   REMARKS
WAUSEON*       FLURRIES  21  18  86 W16G24    30.27R WCI   7
DEFIANCE       FLURRIES  22  14  71 SW13G20   30.31S WCI  10
FINDLAY        FLURRIES  22  14  71 W17       30.30R WCI   8
TOLEDO EXPRESS MOCLDY    21  17  84 W21       30.27R WCI   5
TOLEDO METCALF MOCLDY    23  17  78 W14       30.28R WCI  11
LIMA           LGT SNOW  20  16  84 W16       30.32S FOG     WCI   6

$$
AND FOR LAKE MICHIGAN COASTAL AND OPEN LAKE BUOY OBSERVATIONS

STATION/POSITION TEMP    WIND        PRES    VSBY  WAVE
                 AIR SEA DIR/SP/G                  HT/PER
                 (F)     (DEG/KT/KT) (MB)    (MI)  (FT/S)
CALUMET HARBOR    23     280/  9/ 14 1028.3R
BURNS HARBOR      26     280/ 21/ 25 1028.8R
SAINT JOSEPH      31     290/ 18/ 24 1026.4R

$$
&&



USA.gov is the U.S. government's official web portal to all federal, state and local government web resources and services.